Hourly Weather Roundup
Issued by NWS Central Illinois

Home | Current Version | Previous Version | Text Only | Print | Product List | Glossary On
Versions: 1 2 3 4 5 6 7 8 9 10 11 12 13 14 15 16 17 18 19 20 21 22 23 24 25 26 27 28 29 30 31 32 33 34 35 36 37 38 39 40 41 42 43 44 45 46 47 48 49 50
462
NZUS43 KILX 160310
HWRILX

Area Weather Roundup
National Weather Service Lincoln IL
1000 PM CDT TUE AUG 15 2017

NOTE:  "FAIR" indicates few or no clouds below 12,000 feet, with
       no sigificant weather and/or obstructions to visibility.


CITY           SKY/WX    TMP DP  RH WIND       PRES   REMARKS
Bloomington    PTCLDY    71  69  93 E7        29.96R
Champaign      CLEAR     73  69  87 E5        29.95R
Danville       CLOUDY    69  68  99 CALM      29.93R FOG
Decatur        CLEAR     71  69  93 E3        29.93R
Effingham      CLEAR     73  71  94 SE3       29.96R
Flora          CLEAR     74  71  91 S3        29.95R
Galesburg      PTCLDY    73  67  83 NE8       29.95S
Jacksonville   CLEAR     75  70  85 SE5       29.91R
Lacon          CLOUDY    73  68  86 E7        29.94R
Lawrenceville  CLEAR     74  71  91 S3        29.95R
Litchfield     CLEAR     72  69  91 SE3       29.94R
$$


CITY           SKY/WX    TMP DP  RH WIND       PRES   REMARKS
Lincoln        CLEAR     73  72  96 E3        29.92S
Macomb         CLEAR     71  69  95 E5        29.95R
Mattoon        CLEAR     74  72  93 SE3       29.94R
Mt Carmel AP   CLEAR     73  69  89 CALM      29.95R
Olney-Noble AP CLEAR     73  71  93 S3        29.95R
Paris AP       MOCLDY    70  68  95 CALM      29.96R
Peoria         CLEAR     78  70  76 NE7       29.93R HX  80
Pontiac        CLOUDY    72  70  95 CALM      29.96R
Rantoul        PTCLDY    75  71  87 CALM      29.95R
Robinson       CLEAR     69  68  96 CALM      29.95R
Springfield    CLEAR     78  71  79 SE3       29.92R HX  80
Taylorville    CLEAR     73  71  93 SE5       29.93R
$$

...REGIONAL REPORTS...


CITY           SKY/WX    TMP DP  RH WIND       PRES   REMARKS
Chicago O`Hare MOCLDY    70  62  76 NE5       29.98R
Kankakee       CLEAR     68  66  94 NE6       29.97R
Moline         MOCLDY    75  66  73 E10       29.94R
Mount Sterling CLEAR     72  68  89 CALM      29.91R
Mount Vernon   CLEAR     70  69  97 CALM      29.95R
Pittsfield     CLEAR     74  70  89 SE3       29.92R
Quincy         CLEAR     76  70  82 E5        29.91R
Rockford       CLOUDY    70  61  73 E8        30.00R
$$


CITY           SKY/WX    TMP DP  RH WIND       PRES   REMARKS
Burlington     PTCLDY    77  71  82 NE8       29.92R
Cedar Rapids   CLEAR     67  67 100 NE8       29.95R
Des Moines     MOCLDY    71  69  93 NE8       29.91R
Kirksville     CLEAR     72  67  84 E6        29.91R
Ottumwa        CLEAR     73  71  93 E10       29.90S
St Louis       PTCLDY    82  70  66 S9        29.93R HX  86
$$


CITY           SKY/WX    TMP DP  RH WIND       PRES   REMARKS
Terre Haute    MOCLDY    71  68  90 CALM      29.95R
Evansville     CLEAR     75  70  84 CALM      29.95R
Indianapolis   CLOUDY    78  66  66 CALM      29.95R HX  80
Lafayette      PTCLDY    70  68  93 CALM      29.95R
Madison        MOCLDY    69  62  78 E8        29.99R
Milwaukee      MOCLDY    67  60  78 NE7       29.99R
$$






USA.gov is the U.S. government's official web portal to all federal, state and local government web resources and services.